User: anonymous   Login
Location: Melbourne
(37.8170°S, 144.9670°E)
Time: 20:43:40
(UTC+10:00)
Language:

Aureole 2 Rocket - Orbit

View from above orbital plane
View from above orbital plane
View from above satellite
View from above satellite

Ground track
Ground track

The orbit data is extracted from the following two-line orbital elements,

1 07004U 73107B   16150.55558707  .00010479  00000-0  18733-3 0  9990
2 07004  73.9369 171.0648 0204921 138.8127 222.8749 15.30109363178354
Epoch (UTC): 29 May 2016 13:20:02
Eccentricity: 0.0204921
inclination: 73.9369°
perigee height: 335 km
apogee height: 616 km
right ascension of ascending node: 171.0648°
argument of perigee: 138.8127°
revolutions per day: 15.30109363
mean anomaly at epoch: 222.8749°
orbit number at epoch: 17835

The dashed part of the orbit path shows where the satellite is in the earth's shadow,  

DLR